TimeEST,TemperatureF,Dew PointF,Humidity,Sea Level PressureIn,VisibilityMPH,Wind Direction,Wind SpeedMPH,Gust SpeedMPH,PrecipitationIn,Events,Conditions,WindDirDegrees,DateUTC
12:51 AM,12.0,9.0,88,30.35,10.0,Calm,Calm,-,N/A,,Clear,0,2012-11-16 05:51:00
1:51 AM,12.0,9.0,88,30.34,10.0,Calm,Calm,-,N/A,,Clear,0,2012-11-16 06:51:00
3:11 AM,10.4,8.6,92,30.27,10.0,Calm,Calm,-,N/A,,Scattered Clouds,0,2012-11-16 08:11:00
3:19 AM,10.4,8.6,92,30.27,10.0,Calm,Calm,-,N/A,,Mostly Cloudy,0,2012-11-16 08:19:00
3:51 AM,10.9,7.0,84,30.35,10.0,Calm,Calm,-,N/A,,Overcast,0,2012-11-16 08:51:00
4:10 AM,10.4,6.8,85,30.28,10.0,Calm,Calm,-,N/A,,Scattered Clouds,0,2012-11-16 09:10:00
4:51 AM,10.9,8.1,88,30.37,10.0,Calm,Calm,-,N/A,,Clear,0,2012-11-16 09:51:00
5:22 AM,10.4,6.8,85,30.28,10.0,Calm,Calm,-,N/A,,Scattered Clouds,0,2012-11-16 10:22:00
5:44 AM,10.4,6.8,85,30.29,10.0,Calm,Calm,-,N/A,,Mostly Cloudy,0,2012-11-16 10:44:00
5:51 AM,10.0,7.0,87,30.38,10.0,Calm,Calm,-,N/A,,Mostly Cloudy,0,2012-11-16 10:51:00
7:51 AM,16.0,14.0,92,30.40,9.0,Calm,Calm,-,N/A,,Mostly Cloudy,0,2012-11-16 12:51:00
8:38 AM,19.4,17.6,93,30.32,10.0,Calm,Calm,-,N/A,,Partly Cloudy,0,2012-11-16 13:38:00
8:51 AM,19.9,18.0,92,30.40,10.0,Calm,Calm,-,N/A,,Partly Cloudy,0,2012-11-16 13:51:00
9:51 AM,26.1,23.0,88,30.41,10.0,Calm,Calm,-,N/A,,Clear,0,2012-11-16 14:51:00
10:51 AM,34.0,24.1,67,30.40,10.0,Calm,Calm,-,N/A,,Clear,0,2012-11-16 15:51:00
11:51 AM,37.0,21.9,54,30.38,10.0,Calm,Calm,-,N/A,,Clear,0,2012-11-16 16:51:00
12:51 PM,39.0,21.0,49,30.38,10.0,Calm,Calm,-,N/A,,Clear,0,2012-11-16 17:51:00
1:51 PM,39.9,21.9,49,30.38,10.0,South,3.5,-,N/A,,Clear,190,2012-11-16 18:51:00
2:51 PM,42.1,19.9,41,30.39,10.0,Variable,4.6,-,N/A,,Clear,0,2012-11-16 19:51:00
3:51 PM,39.9,21.0,47,30.41,10.0,North,3.5,-,N/A,,Clear,350,2012-11-16 20:51:00
4:51 PM,33.1,19.9,59,30.43,10.0,Calm,Calm,-,N/A,,Clear,0,2012-11-16 21:51:00
5:51 PM,33.1,21.9,64,30.48,10.0,Calm,Calm,-,N/A,,Clear,0,2012-11-16 22:51:00
6:39 PM,30.2,21.2,69,30.40,10.0,Calm,Calm,-,N/A,,Overcast,0,2012-11-16 23:39:00
6:51 PM,30.0,23.0,75,30.48,10.0,Calm,Calm,-,N/A,,Overcast,0,2012-11-16 23:51:00
7:51 PM,30.9,24.1,76,30.48,10.0,South,4.6,-,N/A,,Overcast,190,2012-11-17 00:51:00
8:46 PM,32.0,23.0,69,30.42,10.0,Calm,Calm,-,N/A,,Overcast,0,2012-11-17 01:46:00
8:51 PM,32.0,23.0,69,30.50,10.0,Calm,Calm,-,N/A,,Overcast,0,2012-11-17 01:51:00
9:23 PM,30.2,24.8,80,30.42,10.0,Calm,Calm,-,N/A,,Overcast,0,2012-11-17 02:23:00
9:51 PM,30.0,25.0,82,30.49,10.0,Calm,Calm,-,N/A,,Overcast,0,2012-11-17 02:51:00
10:51 PM,30.0,24.1,79,30.48,10.0,Calm,Calm,-,N/A,,Overcast,0,2012-11-17 03:51:00
11:00 PM,30.2,24.8,80,30.42,10.0,Calm,Calm,-,N/A,,Overcast,0,2012-11-17 04:00:00
11:27 PM,28.4,24.8,86,30.43,10.0,Calm,Calm,-,N/A,,Overcast,0,2012-11-17 04:27:00
11:37 PM,28.4,24.8,86,30.43,10.0,Calm,Calm,-,N/A,,Overcast,0,2012-11-17 04:37:00
11:51 PM,28.9,24.1,82,30.49,10.0,Calm,Calm,-,N/A,,Overcast,0,2012-11-17 04:51:00